Вернуться в каталог

COSMOS 1275 DEB

АктивенPO
NORAD 27735·DEBRIS·🇷🇺 Russia

Запущен Jun 4, 1981 с Plesetsk Cosmodrome

Loading…

Ближайшие Пролёты (ближайшие 24 часа)

TLE

СвежийSource: Space-Track

Эпоха: Sep 14, 2026, 04:02 UTC

1 27735U 81053MQ  26257.16824558  .00001021  00000-0  85394-3 0  9998
2 27735  83.0491 148.9759 0096512 334.0662 178.4592 13.85338730637150

Отслеживайте COSMOS 1275 DEB в реальном времени с AllMySat

Download on the App Store